EST,Max TemperatureF,Mean TemperatureF,Min TemperatureF,Max Dew PointF,MeanDew PointF,Min DewpointF,Max Humidity, Mean Humidity, Min Humidity, Max Sea Level PressureIn, Mean Sea Level PressureIn, Min Sea Level PressureIn, Max VisibilityMiles, Mean VisibilityMiles, Min VisibilityMiles, Max Wind SpeedMPH, Mean Wind SpeedMPH, Max Gust SpeedMPH,PrecipitationIn, CloudCover, Events, WindDirDegrees
2012-11-1,42,39,36,39,37,35,100,91,82,29.49,29.44,29.39,10,9,3,17,6,23,0.05,8,Rain,228
2012-11-2,37,35,33,35,32,30,100,88,76,29.70,29.55,29.46,10,7,2,13,6,17,0.03,8,Snow,247
2012-11-3,34,33,31,32,30,28,92,89,85,29.94,29.80,29.67,10,4,2,10,7,18,T,8,Snow,270
2012-11-4,32,30,28,29,26,21,92,84,75,30.02,29.95,29.89,10,6,0,10,5,16,0.02,8,Fog-Snow,295
2012-11-5,29,25,21,20,18,15,81,70,58,30.15,30.07,29.97,10,10,6,10,4,17,T,7,Snow,297
2012-11-6,33,22,10,18,14,7,96,71,45,30.22,30.18,30.14,10,10,9,9,1,13,T,1,,255
2012-11-7,33,19,5,21,13,3,92,68,43,30.20,30.12,30.03,10,10,10,14,5,17,0.00,0,,55
2012-11-8,31,25,18,25,21,16,91,80,68,30.03,30.00,29.96,10,10,10,18,5,24,0.00,5,,11
2012-11-9,37,26,14,34,25,11,96,74,52,30.14,30.07,30.00,10,9,7,10,3,14,T,6,Snow,240
2012-11-10,45,38,30,34,27,14,92,61,30,30.38,30.26,30.10,10,10,7,8,3,12,T,5,,3
2012-11-11,65,48,31,42,37,27,96,68,39,30.35,30.31,30.27,10,10,9,18,5,24,0.01,4,Rain,235
2012-11-12,67,50,33,47,41,31,92,68,43,30.29,30.12,29.92,10,9,2,31,15,44,0.07,2,Rain,213
2012-11-13,46,31,16,42,29,14,96,76,56,30.51,30.24,30.09,10,9,4,18,6,26,0.16,6,Rain,247
2012-11-14,39,26,12,24,15,10,92,68,44,30.62,30.55,30.48,10,8,0,9,2,13,0.00,2,Fog,63
2012-11-15,38,25,12,22,16,11,92,70,48,30.51,30.43,30.35,10,10,10,7,1,9,0.00,0,,70
2012-11-16,43,26,9,25,18,7,96,68,39,30.50,30.39,30.27,10,10,9,7,1,10,0.00,4,,208
2012-11-17,41,28,15,27,22,13,100,77,54,30.69,30.59,30.43,10,9,6,8,1,12,0.00,3,,294
2012-11-18,43,27,10,29,18,7,100,75,49,30.73,30.65,30.59,10,8,0,7,1,9,0.00,1,Fog,335
2012-11-19,47,29,11,27,16,9,100,69,37,30.58,30.46,30.28,10,7,0,7,1,9,0.00,3,Fog,255
2012-11-20,43,30,16,27,22,14,92,71,49,30.26,30.21,30.15,10,10,10,5,1,7,0.00,4,,35
2012-11-21,52,36,19,29,21,17,100,63,26,30.25,30.22,30.16,10,10,7,9,1,12,0.00,2,,220
2012-11-22,56,36,16,27,21,14,92,60,27,30.26,30.17,30.03,10,10,10,14,3,18,0.00,0,,231
2012-11-23,56,38,19,43,31,17,96,67,38,30.00,29.71,29.55,10,8,3,28,8,37,0.13,5,Rain,222
2012-11-24,36,29,21,31,21,14,92,81,69,29.72,29.56,29.50,10,4,0,18,11,29,0.06,8,Fog-Snow,262
2012-11-25,25,22,19,19,14,8,91,71,50,29.81,29.74,29.66,10,8,2,15,8,28,T,6,Snow,254
2012-11-26,28,24,20,25,21,16,100,84,68,30.20,29.90,29.73,10,6,2,13,4,21,0.01,8,Snow,236
2012-11-27,30,26,21,27,22,19,100,85,69,30.26,30.20,30.12,10,5,1,8,1,15,0.01,8,Snow,279
2012-11-28,29,26,22,25,23,18,100,84,68,30.21,30.08,30.00,10,5,1,16,7,24,0.01,8,Snow,225
2012-11-29,32,24,15,29,21,10,92,83,74,30.30,30.11,29.98,10,4,1,17,7,26,0.13,8,Snow,264
2012-11-30,17,7,-4,10,6,-3,92,77,61,30.54,30.45,30.28,10,10,10,10,4,14,T,5,,44